Location: Newark
(50.0306°N, 2.3272°E)
Time: 16:38:44
(UTC+00:00)

Vanguard 1 Rocket - Pass Details

Date: 17 December 2019
Orbit: 650 x 4226 km, 34.3° (Epoch: 21 January)

Event Time Altitude Azimuth Distance (km) Brightness Sun altitude
Rises 15:13:58 0° 178° (S) 8,388 13.0 3.5°
Reaches altitude 10° 15:25:06 10° 158° (SSE) 7,392 12.3 2.2°
Maximum altitude 15:34:56 14° 135° (SE) 6,756 11.8 1.0°
Drops below altitude 10° 15:43:43 10° 111° (ESE) 6,580 11.5 -0.1°
Sets 15:51:58 0° 90° (E) 6,901 11.4 -1.2°
